Printer-friendly version

IAU Minor Planet Center

Minor Planet Center

MPEC 2005-F11 : 2005 FF

The following Minor Planet Electronic Circular may be linked-to from your own Web pages, but must not otherwise be redistributed electronically.


Read MPEC 2005-F10 Read MPEC 2005-F12


M.P.E.C. 2005-F11                                Issued 2005 Mar. 17, 12:00 UT

     The Minor Planet Electronic Circulars contain information on unusual
         minor planets and routine data on comets.  They are published
   on behalf of Commission 20 of the International Astronomical Union by the
          Minor Planet Center, Smithsonian Astrophysical Observatory,
                          Cambridge, MA 02138, U.S.A.

                  Supported in part by the Brinson Foundation
             Prepared using the Tamkin Foundation Computer Network

                              MPC@CFA.HARVARD.EDU
          URL http://cfa-www.harvard.edu/iau/mpc.html  ISSN 1523-6714

                                    2005 FF

Observations:
     K05F00F* C2005 03 16.33199 12 00 58.71 +13 09 10.5          19.8 R EF011703
     K05F00F  C2005 03 16.34140 12 00 55.51 +13 08 51.0          19.9 R EF011703
     K05F00F  C2005 03 16.35097 12 00 52.30 +13 08 32.3          18.1 R EF011703
     K05F00F  C2005 03 16.36039 12 00 49.03 +13 08 11.6          19.0 R EF011703
     K05F00F  C2005 03 16.39332 12 00 37.79 +13 07 03.9          19.1 R EF011703
     K05F00F  C2005 03 16.40373 12 00 34.24 +13 06 43.3          19.1 R EF011703
     K05F00F  C2005 03 16.41417 12 00 30.77 +13 06 22.0          19.4 R EF011703
     K05F00F  C2005 03 16.42458 12 00 27.30 +13 05 59.5          19.7 R EF011703
     K05F00F  C2005 03 16.63392 11 59 17.62 +12 59 19.3          19.3 R EF011474
     K05F00F  C2005 03 16.63508 11 59 17.22 +12 59 17.4          19.5 R EF011474
     K05F00F  C2005 03 16.63891 11 59 15.92 +12 59 09.1          19.1 R EF011474
     K05F00F  C2005 03 16.64019 11 59 15.48 +12 59 07.3          18.9 R EF011474
     K05F00F  C2005 03 16.96133 11 57 28.52 +12 47 31.7          19.5 R EF011143
     K05F00F  C2005 03 16.96576 11 57 26.99 +12 47 22.2          19.4 R EF011143
     K05F00F  C2005 03 17.00906 11 57 12.10 +12 45 51.8          19.6 R EF011143
     K05F00F  C2005 03 17.01296 11 57 10.72 +12 45 43.6          20.0 R EF011143
     K05F00F  C2005 03 17.02077 11 57 08.07 +12 45 27.8          19.5 R EF011143
     K05F00F  C2005 03 17.02663 11 57 05.99 +12 45 14.9          19.9 R EF011143
     K05F00F  C2005 03 17.27769 11 55 41.71 +12 36 31.4          19.9 R EF011854
     K05F00F  C2005 03 17.28340 11 55 39.79 +12 36 20.5          19.9 R EF011854

Observer details:
143 Gnosca.  Observer S. Sposetti.  0.40-m f/4 reflector + CCD.
474 Mount John Observatory, Lake Tekapo.  Observer A. C. Gilmore.  Measurer
    P. M. Kilmartin.  1.0-m f/7.7 reflector + CCD.
703 Catalina Sky Survey.  Observer R. Hill.  Measurers E. C. Beshore,
    C. M. Casey, E. J. Christensen, G. J. Garradd, R. E. Hill, S. M. Larson,
    R. H. McNaught.  0.68-m Schmidt + CCD.
854 Sabino Canyon Observatory, Tucson.  Observer J. E. McGaha.  0.36-m f/10.0
    Schmidt-Cassegrain + CCD.

Orbital elements:
2005 FF                                                              PHA 0.037A
Epoch 2005 Mar. 11.0 TT = JDT 2453440.5                 MPC
M 261.85087              (2000.0)            P               Q
n   0.71170419     Peri.  301.58235     +0.52360052     +0.85196390
a   1.2424236      Node   359.98954     -0.41157878     +0.25283372
e   0.3130611      Incl.   37.67696     -0.74595268     +0.45851131
P   1.38           H   20.7           G   0.15
From 20 observations 2005 Mar. 16-17.

Ephemeris:
2005 FF                  a,e,i = 1.24, 0.31, 38                  q = 0.8535
Date    TT    R. A. (2000) Decl.     Delta      r     Elong.  Phase     V
2005 03 11    12 28.38   +15 45.3    0.428    1.404   160.3    13.8    20.4
2005 03 21    11 33.93   +10 14.1    0.373    1.363   167.5     9.1    19.8
2005 03 31    10 33.15   +02 29.7    0.362    1.320   148.1    23.5    20.2
2005 04 10    09 40.77   -05 20.2    0.389    1.274   126.9    39.0    20.7
2005 04 20    09 03.60   -11 43.2    0.441    1.226   109.7    50.5    21.2
2005 04 30    08 39.59   -16 40.5    0.503    1.177    96.6    58.3    21.7
2005 05 10    08 24.44   -20 41.7    0.563    1.126    86.5    63.5    22.0

Timothy B. Spahr             (C) Copyright 2005 MPC           M.P.E.C. 2005-F11

Read MPEC 2005-F10 Read MPEC 2005-F12


Our Web policy. Index to the CBAT/MPC/ICQ pages.


Valid HTML 4.01!